Flag for Sierra Leone Weather past 2 weeks in Kenema, Sierra Leone

Now
84 °F

Broken clouds.


Feels Like: 92 °F
Forecast: N/A
Wind: 10 mph from Southwest

Location: Roberts Field

Current Time: Sep 30, 2014 at 2:50:57 PM

Latest Report: Sep 30, 2014 at 2:30 PM


Visibility: N/A

Pressure: 29.89 "Hg

Humidity: 74%

Dew point: 75 °F

Location of KenemaLocation

Historic Weather in Kenema — Graph

°F

Kenema temperature yesterday

Maximum temperature yesterday: 84 °F (at 4:00 PM)
Minimum temperature yesterday: 73 °F (at 4:00 AM)
Average temperature yesterday: 76 °F

Past Weeks' High & Low Weather Summary

 TemperatureHumidityPressure
High88 °F (Sep 21, 2:00 PM)100% (Sep 16, 7:30 AM)30.01 "Hg (Sep 16, 7:30 AM)
Low70 °F (Sep 28, 5:00 AM)66% (Sep 27, 3:30 PM)29.83 "Hg (Sep 21, 3:00 PM)
Average78 °F90%29.93 "Hg
* Reported Sep 15 1:00 PM — Sep 30 1:30 PM, Kenema, Weather by CustomWeather, © 2014

Note: Actual official high and low records may vary slightly from our data, if they occured in-between our weather recording intervals... More about our weather records

Advertising

Kenema weather history for previous 24 hours

 ConditionsComfort  
Time TempWeatherWind HumidityBarometerVisibility
1:30 PM
Sep 30
84 °FBroken clouds.7 mph74%29.92 "HgN/A
1:00 PM84 °FBroken clouds.8 mph74%29.95 "HgN/A
12:30 PM82 °FPartly sunny.9 mph79%29.95 "HgN/A
12:00 PM81 °FPartly sunny.8 mph84%29.95 "HgN/A
11:30 AM82 °FPartly sunny.6 mph79%29.95 "HgN/A
11:00 AM82 °FPartly sunny.No wind79%29.98 "HgN/A
10:30 AM81 °FPartly sunny.No wind84%29.98 "HgN/A
10:00 AM81 °FPartly sunny.No wind84%29.98 "HgN/A
9:30 AM79 °FBroken clouds.No wind89%29.98 "HgN/A
9:00 AM77 °FBroken clouds.No wind94%29.98 "HgN/A
8:30 AM75 °FBroken clouds.No wind94%29.95 "HgN/A
8:00 AM75 °FBroken clouds.No wind94%29.95 "HgN/A
7:30 AM75 °FBroken clouds.No wind94%29.95 "HgN/A
7:00 AM73 °FMild.No wind94%29.95 "HgN/A
6:30 AM73 °FPartly cloudy.No wind94%29.92 "HgN/A
6:00 AM73 °FPassing clouds.No wind94%29.92 "HgN/A
5:00 AM75 °FPassing clouds.No wind94%29.92 "HgN/A
4:00 PM
Sep 29
84 °FPartly sunny.12 mph74%29.89 "HgN/A
Weather by CustomWeather, © 2014

See weather overviewHow to use our weather pages